Torna al catalogo

ENSHI XIDA SHANQUAN

AttivoScienzaSSO
NORAD 64962·PAYLOAD·🇨🇳 China

Lanciato Jul 29, 2025 da Jiuquan Satellite Launch Center

Loading…

Prossimi Passaggi (prossime 24 ore)

TLE

AggiornatoSource: Space-Track

Epoca: Sep 14, 2026, 11:57 UTC

1 64962U 25160A   26257.49825284  .00036242  00000-0  68901-3 0  9999
2 64962  97.3553 336.5720 0005692 228.7703 131.3057 15.48153415 63206

Traccia ENSHI XIDA SHANQUAN in tempo reale con AllMySat

Download on the App Store